Time,TemperatureF,DewpointF,PressureIn,WindDirection,WindDirectionDegrees,WindSpeedMPH,WindSpeedGustMPH,Humidity,HourlyPrecipIn,Conditions,Clouds,dailyrainin,SoftwareType,DateUTC
2013-10-10 00:02:00,48.6,44.6,29.95,North,0,0.4,0.4,86,0.00,,,0.00,WUHU216HW,2013-10-10 07:02:00,
2013-10-10 00:07:00,48.6,44.9,29.94,SSE,158,0.7,1.3,87,0.00,,,0.00,WUHU216HW,2013-10-10 07:07:00,
2013-10-10 00:12:00,48.6,44.3,29.93,SSE,158,0.4,1.3,85,0.00,,,0.00,WUHU216HW,2013-10-10 07:12:00,
2013-10-10 00:17:00,48.8,45.1,29.93,SSE,158,1.1,1.3,87,0.00,,,0.00,WUHU216HW,2013-10-10 07:17:00,
2013-10-10 00:22:00,48.6,44.3,29.93,SW,225,0.2,1.3,85,0.00,,,0.00,WUHU216HW,2013-10-10 07:22:00,
2013-10-10 00:27:00,48.6,44.3,29.94,SW,225,0.0,1.3,85,0.00,,,0.00,WUHU216HW,2013-10-10 07:27:00,
2013-10-10 00:32:00,48.6,44.3,29.94,SW,225,0.0,0.7,85,0.00,,,0.00,WUHU216HW,2013-10-10 07:32:00,
2013-10-10 00:37:00,48.6,43.9,29.94,West,270,1.1,1.1,84,0.00,,,0.00,WUHU216HW,2013-10-10 07:37:00,
2013-10-10 00:42:00,48.4,43.7,29.94,West,270,0.0,1.1,84,0.00,,,0.00,WUHU216HW,2013-10-10 07:42:00,
2013-10-10 00:47:00,48.4,44.7,29.94,SE,135,1.1,1.3,87,0.00,,,0.00,WUHU216HW,2013-10-10 07:47:00,
2013-10-10 00:52:00,48.4,44.4,29.94,SE,135,0.0,1.3,86,0.00,,,0.00,WUHU216HW,2013-10-10 07:52:00,
2013-10-10 00:57:00,48.2,43.9,29.94,SE,135,0.0,1.3,85,0.00,,,0.00,WUHU216HW,2013-10-10 07:57:00,
2013-10-10 01:02:00,48.1,43.7,29.94,SE,135,0.0,0.0,85,0.00,,,0.00,WUHU216HW,2013-10-10 08:02:00,
2013-10-10 01:07:00,47.9,43.6,29.95,SE,135,0.0,0.0,85,0.00,,,0.00,WUHU216HW,2013-10-10 08:07:00,
2013-10-10 01:12:00,47.9,43.6,29.95,SE,135,0.0,0.0,85,0.00,,,0.00,WUHU216HW,2013-10-10 08:12:00,
2013-10-10 01:17:00,47.5,43.2,29.95,SE,135,0.0,0.0,85,0.00,,,0.00,WUHU216HW,2013-10-10 08:17:00,
2013-10-10 01:22:00,47.5,44.2,29.94,SSE,158,1.1,1.1,88,0.00,,,0.00,WUHU216HW,2013-10-10 08:22:00,
2013-10-10 01:27:00,47.5,44.5,29.94,SSE,158,0.0,1.3,89,0.00,,,0.00,WUHU216HW,2013-10-10 08:27:00,
2013-10-10 01:32:00,47.5,44.2,29.94,SSE,158,0.0,1.3,88,0.00,,,0.00,WUHU216HW,2013-10-10 08:32:00,
2013-10-10 01:37:00,47.3,43.7,29.94,South,180,0.4,1.3,87,0.00,,,0.00,WUHU216HW,2013-10-10 08:37:00,
2013-10-10 01:42:00,47.3,43.7,29.94,South,180,0.9,1.3,87,0.00,,,0.00,WUHU216HW,2013-10-10 08:42:00,
2013-10-10 01:47:00,47.2,43.6,29.94,SSW,203,0.0,1.1,87,0.00,,,0.00,WUHU216HW,2013-10-10 08:47:00,
2013-10-10 01:52:00,47.2,43.6,29.94,SSW,203,0.0,0.7,87,0.00,,,0.00,WUHU216HW,2013-10-10 08:52:00,
2013-10-10 01:57:00,47.2,43.2,29.94,SSW,203,0.0,0.0,86,0.00,,,0.00,WUHU216HW,2013-10-10 08:57:00,
2013-10-10 02:02:00,46.8,42.8,29.95,SSW,203,0.0,0.0,86,0.00,,,0.00,WUHU216HW,2013-10-10 09:02:00,
2013-10-10 02:07:00,46.6,42.7,29.95,SSW,203,0.0,0.0,86,0.00,,,0.00,WUHU216HW,2013-10-10 09:07:00,
2013-10-10 02:12:00,46.4,42.5,29.95,SSW,203,0.0,0.0,86,0.00,,,0.00,WUHU216HW,2013-10-10 09:12:00,
2013-10-10 02:17:00,46.3,42.3,29.95,WNW,293,0.0,0.0,86,0.00,,,0.00,WUHU216HW,2013-10-10 09:17:00,
2013-10-10 02:22:00,46.1,42.1,29.95,WNW,293,0.9,1.3,86,0.00,,,0.00,WUHU216HW,2013-10-10 09:22:00,
2013-10-10 02:27:00,45.7,42.4,29.95,WNW,293,0.0,1.3,88,0.00,,,0.00,WUHU216HW,2013-10-10 09:27:00,
2013-10-10 02:32:00,45.7,42.4,29.94,WNW,293,0.0,0.9,88,0.00,,,0.00,WUHU216HW,2013-10-10 09:32:00,
2013-10-10 02:37:00,45.7,42.8,29.94,SSE,158,1.1,1.1,89,0.00,,,0.00,WUHU216HW,2013-10-10 09:37:00,
2013-10-10 02:42:00,45.4,42.0,29.94,SSE,158,0.0,1.6,88,0.00,,,0.00,WUHU216HW,2013-10-10 09:42:00,
2013-10-10 02:47:00,45.2,41.9,29.94,SSE,158,0.0,1.6,88,0.00,,,0.00,WUHU216HW,2013-10-10 09:47:00,
2013-10-10 02:52:00,45.0,41.7,29.94,SSE,158,0.0,0.0,88,0.00,,,0.00,WUHU216HW,2013-10-10 09:52:00,
2013-10-10 02:57:00,44.8,41.5,29.94,SSE,158,0.0,0.0,88,0.00,,,0.00,WUHU216HW,2013-10-10 09:57:00,
2013-10-10 03:02:00,44.6,41.3,29.94,SSE,158,0.0,0.0,88,0.00,,,0.00,WUHU216HW,2013-10-10 10:02:00,
2013-10-10 03:07:00,44.6,41.3,29.93,SSE,158,0.0,0.0,88,0.00,,,0.00,WUHU216HW,2013-10-10 10:07:00,
2013-10-10 03:12:00,44.8,41.9,29.93,SSE,158,0.0,0.0,89,0.00,,,0.00,WUHU216HW,2013-10-10 10:12:00,
2013-10-10 03:17:00,44.8,41.5,29.94,SSE,158,0.0,0.0,88,0.00,,,0.00,WUHU216HW,2013-10-10 10:17:00,
2013-10-10 03:22:00,45.0,41.7,29.94,SSE,158,0.0,0.0,88,0.00,,,0.00,WUHU216HW,2013-10-10 10:22:00,
2013-10-10 03:27:00,45.0,42.0,29.94,SSE,158,0.0,0.0,89,0.00,,,0.00,WUHU216HW,2013-10-10 10:27:00,
2013-10-10 03:32:00,45.2,42.2,29.94,SSE,158,0.0,0.0,89,0.00,,,0.00,WUHU216HW,2013-10-10 10:32:00,
2013-10-10 03:37:00,45.4,42.4,29.94,SSE,158,0.0,0.0,89,0.00,,,0.00,WUHU216HW,2013-10-10 10:37:00,
2013-10-10 03:42:00,45.5,42.8,29.93,SSE,158,0.0,0.0,90,0.00,,,0.00,WUHU216HW,2013-10-10 10:42:00,
2013-10-10 03:47:00,45.7,43.0,29.93,SSE,158,0.0,0.0,90,0.00,,,0.00,WUHU216HW,2013-10-10 10:47:00,
2013-10-10 03:52:00,45.9,43.2,29.93,SSE,158,0.0,0.0,90,0.00,,,0.00,WUHU216HW,2013-10-10 10:52:00,
2013-10-10 03:57:00,46.1,43.4,29.93,SSE,158,0.0,0.0,90,0.00,,,0.00,WUHU216HW,2013-10-10 10:57:00,
2013-10-10 04:02:00,46.1,43.1,29.93,SSE,158,0.0,0.0,89,0.00,,,0.00,WUHU216HW,2013-10-10 11:02:00,
2013-10-10 04:07:00,46.3,43.3,29.93,SSE,158,0.0,0.0,89,0.00,,,0.00,WUHU216HW,2013-10-10 11:07:00,
2013-10-10 04:12:00,46.4,44.0,29.94,SSE,158,0.0,0.0,91,0.00,,,0.00,WUHU216HW,2013-10-10 11:12:00,
2013-10-10 04:17:00,46.4,44.0,29.94,SSE,158,0.9,1.1,91,0.00,,,0.00,WUHU216HW,2013-10-10 11:17:00,
2013-10-10 04:22:00,46.4,43.7,29.93,SSE,158,0.9,1.3,90,0.00,,,0.00,WUHU216HW,2013-10-10 11:22:00,
2013-10-10 04:27:00,46.4,43.7,29.93,SSE,158,0.4,1.3,90,0.00,,,0.00,WUHU216HW,2013-10-10 11:27:00,
2013-10-10 04:32:00,46.6,43.9,29.93,South,180,0.7,1.1,90,0.00,,,0.00,WUHU216HW,2013-10-10 11:32:00,
2013-10-10 04:37:00,46.8,44.1,29.93,South,180,0.9,1.1,90,0.00,,,0.00,WUHU216HW,2013-10-10 11:37:00,
2013-10-10 04:42:00,46.8,44.1,29.93,SW,225,0.9,1.3,90,0.00,,,0.00,WUHU216HW,2013-10-10 11:42:00,
2013-10-10 04:47:00,46.8,44.1,29.93,SSW,203,1.1,1.3,90,0.00,,,0.00,WUHU216HW,2013-10-10 11:47:00,
2013-10-10 04:52:00,47.0,44.3,29.93,SW,225,1.1,2.5,90,0.00,,,0.00,WUHU216HW,2013-10-10 11:52:00,
2013-10-10 04:57:00,47.0,44.3,29.93,SSW,203,1.6,2.5,90,0.00,,,0.00,WUHU216HW,2013-10-10 11:57:00,
2013-10-10 05:02:00,47.2,44.5,29.93,SSW,203,2.0,2.5,90,0.00,,,0.00,WUHU216HW,2013-10-10 12:02:00,
2013-10-10 05:07:00,47.2,44.7,29.93,SSW,203,2.5,2.5,91,0.00,,,0.00,WUHU216HW,2013-10-10 12:07:00,
2013-10-10 05:12:00,47.2,44.5,29.93,SSW,203,1.1,2.5,90,0.00,,,0.00,WUHU216HW,2013-10-10 12:12:00,
2013-10-10 05:17:00,47.2,44.5,29.93,SSW,203,0.0,1.8,90,0.00,,,0.00,WUHU216HW,2013-10-10 12:17:00,
2013-10-10 05:22:00,47.2,44.2,29.93,SW,225,0.0,1.3,89,0.00,,,0.00,WUHU216HW,2013-10-10 12:22:00,
2013-10-10 05:27:00,47.2,44.5,29.93,SW,225,0.4,0.7,90,0.00,,,0.00,WUHU216HW,2013-10-10 12:27:00,
2013-10-10 05:32:00,47.2,44.2,29.94,SW,225,0.7,1.8,89,0.00,,,0.00,WUHU216HW,2013-10-10 12:32:00,
2013-10-10 05:37:00,47.2,44.5,29.94,SSW,203,3.1,3.1,90,0.00,,,0.00,WUHU216HW,2013-10-10 12:37:00,
2013-10-10 05:42:00,47.3,44.6,29.94,SW,225,0.2,3.4,90,0.00,,,0.00,WUHU216HW,2013-10-10 12:42:00,
2013-10-10 05:47:00,47.5,45.1,29.94,SW,225,1.3,3.4,91,0.00,,,0.00,WUHU216HW,2013-10-10 12:47:00,
2013-10-10 05:52:00,47.5,45.1,29.93,SW,225,1.1,2.7,91,0.00,,,0.00,WUHU216HW,2013-10-10 12:52:00,
2013-10-10 05:57:00,47.7,45.0,29.93,South,180,0.0,2.7,90,0.00,,,0.00,WUHU216HW,2013-10-10 12:57:00,
2013-10-10 06:02:00,47.7,45.0,29.93,SW,225,0.4,1.8,90,0.00,,,0.00,WUHU216HW,2013-10-10 13:02:00,
2013-10-10 06:07:00,47.7,44.6,29.93,SW,225,0.4,2.7,89,0.00,,,0.00,WUHU216HW,2013-10-10 13:07:00,
2013-10-10 06:12:00,47.7,44.6,29.93,SW,225,1.1,2.7,89,0.00,,,0.00,WUHU216HW,2013-10-10 13:12:00,
2013-10-10 06:17:00,47.7,44.6,29.94,SW,225,0.9,3.1,89,0.00,,,0.00,WUHU216HW,2013-10-10 13:17:00,
2013-10-10 06:22:00,47.7,44.6,29.94,SSW,203,2.5,3.1,89,0.00,,,0.00,WUHU216HW,2013-10-10 13:22:00,
2013-10-10 06:27:00,47.7,44.6,29.94,SSW,203,1.1,2.9,89,0.00,,,0.00,WUHU216HW,2013-10-10 13:27:00,
2013-10-10 06:32:00,47.7,44.6,29.94,SW,225,2.0,2.9,89,0.00,,,0.00,WUHU216HW,2013-10-10 13:32:00,
2013-10-10 06:37:00,47.9,44.8,29.94,SSW,203,1.6,2.7,89,0.00,,,0.00,WUHU216HW,2013-10-10 13:37:00,
2013-10-10 06:42:00,47.9,44.8,29.94,SW,225,1.6,2.7,89,0.00,,,0.00,WUHU216HW,2013-10-10 13:42:00,
2013-10-10 06:47:00,47.9,44.8,29.95,SSW,203,1.8,2.7,89,0.00,,,0.00,WUHU216HW,2013-10-10 13:47:00,
2013-10-10 06:52:00,47.9,44.8,29.95,WSW,248,0.7,2.7,89,0.00,,,0.00,WUHU216HW,2013-10-10 13:52:00,
2013-10-10 06:57:00,47.9,44.8,29.95,SSW,203,0.4,2.0,89,0.00,,,0.00,WUHU216HW,2013-10-10 13:57:00,
2013-10-10 07:02:00,47.9,45.2,29.95,SSW,203,1.1,2.0,90,0.00,,,0.00,WUHU216HW,2013-10-10 14:02:00,
2013-10-10 07:07:00,47.9,44.8,29.95,SSW,203,0.0,1.8,89,0.00,,,0.00,WUHU216HW,2013-10-10 14:07:00,
2013-10-10 07:12:00,47.9,44.8,29.95,SSW,203,0.0,1.3,89,0.00,,,0.00,WUHU216HW,2013-10-10 14:12:00,
2013-10-10 07:17:00,47.9,44.8,29.95,SW,225,0.7,0.7,89,0.00,,,0.00,WUHU216HW,2013-10-10 14:17:00,
2013-10-10 07:22:00,47.9,44.6,29.95,SW,225,0.0,0.7,88,0.00,,,0.00,WUHU216HW,2013-10-10 14:22:00,
2013-10-10 07:27:00,47.9,44.8,29.96,SW,225,0.0,0.7,89,0.00,,,0.00,WUHU216HW,2013-10-10 14:27:00,
2013-10-10 07:32:00,47.9,44.8,29.96,SW,225,0.0,0.2,89,0.00,,,0.00,WUHU216HW,2013-10-10 14:32:00,
2013-10-10 07:37:00,47.9,44.8,29.96,SW,225,0.0,0.0,89,0.00,,,0.00,WUHU216HW,2013-10-10 14:37:00,
2013-10-10 07:42:00,47.9,44.8,29.96,SW,225,0.0,0.0,89,0.00,,,0.00,WUHU216HW,2013-10-10 14:42:00,
2013-10-10 07:47:00,47.9,44.8,29.96,SW,225,0.4,1.1,89,0.00,,,0.00,WUHU216HW,2013-10-10 14:47:00,
2013-10-10 07:52:00,48.1,45.0,29.96,SW,225,0.0,1.1,89,0.00,,,0.00,WUHU216HW,2013-10-10 14:52:00,
2013-10-10 07:57:00,48.1,45.0,29.96,SW,225,0.0,1.1,89,0.00,,,0.00,WUHU216HW,2013-10-10 14:57:00,
2013-10-10 08:02:00,48.2,45.2,29.97,SSW,203,0.0,0.0,89,0.00,,,0.00,WUHU216HW,2013-10-10 15:02:00,
2013-10-10 08:07:00,48.2,45.2,29.97,South,180,0.0,0.7,89,0.00,,,0.00,WUHU216HW,2013-10-10 15:07:00,
2013-10-10 08:12:00,48.2,45.2,29.96,South,180,0.2,0.7,89,0.00,,,0.00,WUHU216HW,2013-10-10 15:12:00,
2013-10-10 08:17:00,48.6,45.5,29.96,SSE,158,2.2,2.2,89,0.00,,,0.00,WUHU216HW,2013-10-10 15:17:00,
2013-10-10 08:22:00,48.6,45.5,29.97,SE,135,0.9,2.2,89,0.00,,,0.00,WUHU216HW,2013-10-10 15:22:00,
2013-10-10 08:27:00,49.0,45.9,29.97,SSE,158,0.7,2.5,89,0.00,,,0.00,WUHU216HW,2013-10-10 15:27:00,
2013-10-10 08:32:00,49.0,45.5,29.97,SSE,158,2.2,2.5,88,0.00,,,0.00,WUHU216HW,2013-10-10 15:32:00,
2013-10-10 08:37:00,49.1,45.7,29.97,South,180,1.3,2.5,88,0.00,,,0.00,WUHU216HW,2013-10-10 15:37:00,
2013-10-10 08:42:00,49.3,45.9,29.97,SSW,203,0.9,2.9,88,0.00,,,0.00,WUHU216HW,2013-10-10 15:42:00,
2013-10-10 08:47:00,49.5,46.1,29.97,SW,225,1.1,2.9,88,0.00,,,0.00,WUHU216HW,2013-10-10 15:47:00,
2013-10-10 08:52:00,49.7,46.3,29.97,SW,225,0.7,2.0,88,0.00,,,0.00,WUHU216HW,2013-10-10 15:52:00,
2013-10-10 08:57:00,49.9,46.1,29.97,SSW,203,1.8,2.5,87,0.00,,,0.00,WUHU216HW,2013-10-10 15:57:00,
2013-10-10 09:02:00,50.0,46.3,29.97,South,180,1.1,2.9,87,0.00,,,0.00,WUHU216HW,2013-10-10 16:02:00,
2013-10-10 09:07:00,50.0,46.3,29.97,SSW,203,1.8,2.9,87,0.00,,,0.00,WUHU216HW,2013-10-10 16:07:00,
2013-10-10 09:12:00,50.4,46.3,29.97,South,180,0.7,3.1,86,0.00,,,0.00,WUHU216HW,2013-10-10 16:12:00,
2013-10-10 09:17:00,50.4,46.3,29.97,SSW,203,1.8,4.0,86,0.00,,,0.00,WUHU216HW,2013-10-10 16:17:00,
2013-10-10 09:22:00,50.6,46.4,29.97,South,180,0.7,4.0,86,0.00,,,0.00,WUHU216HW,2013-10-10 16:22:00,
2013-10-10 09:27:00,50.8,47.0,29.97,SSW,203,1.6,3.1,87,0.00,,,0.00,WUHU216HW,2013-10-10 16:27:00,
2013-10-10 09:32:00,50.9,46.8,29.97,SW,225,3.4,4.7,86,0.00,,,0.00,WUHU216HW,2013-10-10 16:32:00,
2013-10-10 09:37:00,51.1,47.0,29.97,SSW,203,1.6,6.7,86,0.00,,,0.00,WUHU216HW,2013-10-10 16:37:00,
2013-10-10 09:42:00,51.3,47.2,29.97,South,180,1.8,6.7,86,0.00,,,0.00,WUHU216HW,2013-10-10 16:42:00,
2013-10-10 09:47:00,51.5,47.3,29.97,SSE,158,1.1,4.5,86,0.00,,,0.00,WUHU216HW,2013-10-10 16:47:00,
2013-10-10 09:52:00,51.5,46.8,29.97,SE,135,3.4,4.5,84,0.00,,,0.00,WUHU216HW,2013-10-10 16:52:00,
2013-10-10 09:57:00,51.7,47.0,29.97,SSE,158,2.5,4.9,84,0.00,,,0.00,WUHU216HW,2013-10-10 16:57:00,
2013-10-10 10:02:00,51.7,47.3,29.98,SW,225,2.5,6.7,85,0.00,,,0.00,WUHU216HW,2013-10-10 17:02:00,
2013-10-10 10:07:00,52.2,47.5,29.98,SSW,203,1.8,6.7,84,0.00,,,0.00,WUHU216HW,2013-10-10 17:07:00,
2013-10-10 10:12:00,52.6,47.9,29.98,SSW,203,1.8,4.5,84,0.00,,,0.00,WUHU216HW,2013-10-10 17:12:00,
2013-10-10 10:17:00,52.9,47.6,29.98,SSW,203,2.9,4.0,82,0.00,,,0.00,WUHU216HW,2013-10-10 17:17:00,
2013-10-10 10:22:00,52.9,47.6,29.98,SSW,203,2.7,3.6,82,0.00,,,0.00,WUHU216HW,2013-10-10 17:22:00,
2013-10-10 10:27:00,53.5,48.4,29.98,West,270,1.6,3.6,83,0.00,,,0.00,WUHU216HW,2013-10-10 17:27:00,
2013-10-10 10:32:00,53.8,48.5,29.99,WSW,248,0.4,2.9,82,0.00,,,0.00,WUHU216HW,2013-10-10 17:32:00,
2013-10-10 10:37:00,54.4,49.0,29.99,West,270,1.6,2.2,82,0.00,,,0.00,WUHU216HW,2013-10-10 17:37:00,
2013-10-10 10:42:00,54.7,48.7,29.99,WNW,293,2.7,2.9,80,0.00,,,0.00,WUHU216HW,2013-10-10 17:42:00,
2013-10-10 10:47:00,55.1,49.0,29.99,SSW,203,1.8,2.9,80,0.00,,,0.00,WUHU216HW,2013-10-10 17:47:00,
2013-10-10 10:52:00,55.1,49.0,29.99,SW,225,1.1,3.1,80,0.00,,,0.00,WUHU216HW,2013-10-10 17:52:00,
2013-10-10 10:57:00,55.3,48.8,29.99,WSW,248,1.1,3.1,79,0.00,,,0.00,WUHU216HW,2013-10-10 17:57:00,
2013-10-10 11:02:00,55.3,49.1,29.99,SSW,203,4.0,4.0,80,0.00,,,0.00,WUHU216HW,2013-10-10 18:02:00,
2013-10-10 11:07:00,55.6,49.1,29.99,SSW,203,1.8,4.0,79,0.00,,,0.00,WUHU216HW,2013-10-10 18:07:00,
2013-10-10 11:12:00,55.6,49.1,29.99,SW,225,2.5,5.6,79,0.00,,,0.00,WUHU216HW,2013-10-10 18:12:00,
2013-10-10 11:17:00,55.8,48.3,29.99,SE,135,1.3,5.6,76,0.00,,,0.00,WUHU216HW,2013-10-10 18:17:00,
2013-10-10 11:21:00,55.8,49.3,29.98,South,180,0.7,4.9,79,0.00,,,0.00,WUHU216HW,2013-10-10 18:21:00,
2013-10-10 11:26:00,56.9,50.0,29.99,West,270,3.6,5.1,78,0.00,,,0.00,WUHU216HW,2013-10-10 18:26:00,
2013-10-10 11:31:00,57.6,49.7,29.99,SW,225,1.8,5.1,75,0.00,,,0.00,WUHU216HW,2013-10-10 18:31:00,
2013-10-10 11:36:00,58.0,49.0,29.99,North,0,1.1,4.0,72,0.00,,,0.00,WUHU216HW,2013-10-10 18:36:00,
2013-10-10 11:41:00,57.8,49.1,29.98,SSW,203,1.1,5.4,73,0.00,,,0.00,WUHU216HW,2013-10-10 18:41:00,
2013-10-10 11:46:00,58.0,49.7,29.99,WSW,248,2.9,5.4,74,0.00,,,0.00,WUHU216HW,2013-10-10 18:46:00,
2013-10-10 11:51:00,58.3,50.0,29.99,SSW,203,0.7,4.7,74,0.00,,,0.00,WUHU216HW,2013-10-10 18:51:00,
2013-10-10 11:56:00,59.6,50.6,29.99,South,180,2.5,4.0,72,0.00,,,0.00,WUHU216HW,2013-10-10 18:56:00,
2013-10-10 12:01:00,60.1,51.5,29.99,SW,225,1.1,3.8,73,0.00,,,0.00,WUHU216HW,2013-10-10 19:01:00,
2013-10-10 12:07:00,60.5,51.1,29.99,NW,315,0.9,4.9,71,0.00,,,0.00,WUHU216HW,2013-10-10 19:07:00,
2013-10-10 12:12:00,60.5,50.8,29.99,WSW,248,2.2,4.9,70,0.00,,,0.00,WUHU216HW,2013-10-10 19:12:00,
2013-10-10 12:17:00,60.5,49.5,29.99,South,180,2.0,4.9,67,0.00,,,0.00,WUHU216HW,2013-10-10 19:17:00,
2013-10-10 12:22:00,60.1,50.8,29.99,WSW,248,1.1,4.9,71,0.00,,,0.00,WUHU216HW,2013-10-10 19:22:00,
2013-10-10 12:27:00,60.8,50.7,29.99,South,180,4.7,4.7,69,0.00,,,0.00,WUHU216HW,2013-10-10 19:27:00,
2013-10-10 12:32:00,60.8,50.3,29.98,SSE,158,1.1,4.7,68,0.00,,,0.00,WUHU216HW,2013-10-10 19:32:00,
2013-10-10 12:37:00,60.8,49.5,29.99,SE,135,1.3,4.7,66,0.00,,,0.00,WUHU216HW,2013-10-10 19:37:00,
2013-10-10 12:42:00,61.0,50.9,29.99,South,180,2.5,4.7,69,0.00,,,0.00,WUHU216HW,2013-10-10 19:42:00,
2013-10-10 12:47:00,61.6,50.9,29.98,SE,135,1.1,4.3,68,0.00,,,0.00,WUHU216HW,2013-10-10 19:47:00,
2013-10-10 12:52:00,61.6,48.4,29.98,SE,135,3.8,5.8,62,0.00,,,0.00,WUHU216HW,2013-10-10 19:52:00,
2013-10-10 12:57:00,61.9,50.4,29.99,WSW,248,0.4,5.8,66,0.00,,,0.00,WUHU216HW,2013-10-10 19:57:00,
2013-10-10 13:02:00,62.5,49.2,29.99,SSW,203,3.8,5.4,62,0.00,,,0.00,WUHU216HW,2013-10-10 20:02:00,
2013-10-10 13:07:00,63.0,51.0,29.99,NNW,338,1.1,5.4,65,0.00,,,0.00,WUHU216HW,2013-10-10 20:07:00,
2013-10-10 13:12:00,63.4,48.8,29.99,SSW,203,4.7,6.3,59,0.00,,,0.00,WUHU216HW,2013-10-10 20:12:00,
2013-10-10 13:17:00,62.5,48.9,29.99,SW,225,3.4,6.3,61,0.00,,,0.00,WUHU216HW,2013-10-10 20:17:00,
2013-10-10 13:22:00,62.6,49.4,29.98,WSW,248,1.6,4.7,62,0.00,,,0.00,WUHU216HW,2013-10-10 20:22:00,
2013-10-10 13:27:00,63.2,48.2,29.98,SSE,158,2.0,4.3,58,0.00,,,0.00,WUHU216HW,2013-10-10 20:27:00,
2013-10-10 13:31:00,62.6,49.1,29.98,SW,225,1.8,2.9,61,0.00,,,0.00,WUHU216HW,2013-10-10 20:31:00,
2013-10-10 13:36:00,62.6,49.4,29.98,ESE,113,0.4,3.4,62,0.00,,,0.00,WUHU216HW,2013-10-10 20:36:00,
2013-10-10 13:41:00,62.8,48.8,29.98,SSW,203,4.5,7.4,60,0.00,,,0.00,WUHU216HW,2013-10-10 20:41:00,
2013-10-10 13:46:00,62.5,48.0,29.98,WNW,293,0.2,7.4,59,0.00,,,0.00,WUHU216HW,2013-10-10 20:46:00,
2013-10-10 13:51:00,62.6,48.6,29.98,West,270,1.8,4.9,60,0.00,,,0.00,WUHU216HW,2013-10-10 20:51:00,
2013-10-10 13:56:00,63.0,48.4,29.98,NE,45,1.1,4.9,59,0.00,,,0.00,WUHU216HW,2013-10-10 20:56:00,
2013-10-10 14:01:00,62.6,48.6,29.98,WSW,248,1.1,4.7,60,0.00,,,0.00,WUHU216HW,2013-10-10 21:01:00,
2013-10-10 14:06:00,63.0,48.0,29.98,South,180,2.2,4.9,58,0.00,,,0.00,WUHU216HW,2013-10-10 21:06:00,
2013-10-10 14:11:00,63.2,48.2,29.98,South,180,2.7,4.9,58,0.00,,,0.00,WUHU216HW,2013-10-10 21:11:00,
2013-10-10 14:16:00,63.4,48.8,29.98,SW,225,2.9,4.0,59,0.00,,,0.00,WUHU216HW,2013-10-10 21:16:00,
2013-10-10 14:21:00,63.7,48.6,29.97,SE,135,2.5,4.7,58,0.00,,,0.00,WUHU216HW,2013-10-10 21:21:00,
2013-10-10 14:26:00,63.9,49.2,29.97,WSW,248,3.4,5.6,59,0.00,,,0.00,WUHU216HW,2013-10-10 21:26:00,
2013-10-10 14:31:00,64.4,48.8,29.97,SSW,203,6.9,6.9,57,0.00,,,0.00,WUHU216HW,2013-10-10 21:31:00,
2013-10-10 14:36:00,64.4,48.2,29.97,WSW,248,3.4,6.9,56,0.00,,,0.00,WUHU216HW,2013-10-10 21:36:00,
2013-10-10 14:41:00,64.4,48.8,29.97,SE,135,1.8,6.9,57,0.00,,,0.00,WUHU216HW,2013-10-10 21:41:00,
2013-10-10 14:46:00,64.4,48.2,29.98,SSW,203,6.0,6.9,56,0.00,,,0.00,WUHU216HW,2013-10-10 21:46:00,
2013-10-10 14:51:00,64.1,48.0,29.97,SSW,203,1.1,6.9,56,0.00,,,0.00,WUHU216HW,2013-10-10 21:51:00,
2013-10-10 14:56:00,64.1,48.4,29.98,SSW,203,2.9,6.5,57,0.00,,,0.00,WUHU216HW,2013-10-10 21:56:00,
2013-10-10 15:01:00,64.1,48.4,29.97,NNW,338,1.1,6.5,57,0.00,,,0.00,WUHU216HW,2013-10-10 22:01:00,
2013-10-10 15:06:00,64.6,49.4,29.98,WSW,248,1.8,5.4,58,0.00,,,0.00,WUHU216HW,2013-10-10 22:06:00,
2013-10-10 15:11:00,64.6,47.5,29.98,SSW,203,0.9,2.9,54,0.00,,,0.00,WUHU216HW,2013-10-10 22:11:00,
2013-10-10 15:16:00,64.4,48.8,29.98,WNW,293,3.4,5.4,57,0.00,,,0.00,WUHU216HW,2013-10-10 22:16:00,
2013-10-10 15:21:00,65.0,48.8,29.97,SSW,203,4.9,5.4,56,0.00,,,0.00,WUHU216HW,2013-10-10 22:21:00,
2013-10-10 15:26:00,65.0,47.9,29.97,SW,225,2.9,4.9,54,0.00,,,0.00,WUHU216HW,2013-10-10 22:26:00,
2013-10-10 15:31:00,64.3,47.6,29.97,East,90,0.4,4.9,55,0.00,,,0.00,WUHU216HW,2013-10-10 22:31:00,
2013-10-10 15:36:00,64.4,47.8,29.98,South,180,2.0,3.4,55,0.00,,,0.00,WUHU216HW,2013-10-10 22:36:00,
2013-10-10 15:41:00,64.1,49.0,29.98,WSW,248,1.6,3.4,58,0.00,,,0.00,WUHU216HW,2013-10-10 22:41:00,
2013-10-10 15:46:00,64.4,48.8,29.98,SSW,203,0.4,2.5,57,0.00,,,0.00,WUHU216HW,2013-10-10 22:46:00,
2013-10-10 15:51:00,64.4,49.2,29.98,SSW,203,0.7,2.5,58,0.00,,,0.00,WUHU216HW,2013-10-10 22:51:00,
2013-10-10 15:56:00,64.1,49.0,29.98,WSW,248,2.0,3.4,58,0.00,,,0.00,WUHU216HW,2013-10-10 22:56:00,
2013-10-10 16:01:00,64.1,49.0,29.97,SW,225,4.0,4.0,58,0.00,,,0.00,WUHU216HW,2013-10-10 23:01:00,
2013-10-10 16:06:00,64.3,50.0,29.98,SW,225,3.4,6.0,60,0.00,,,0.00,WUHU216HW,2013-10-10 23:06:00,
2013-10-10 16:11:00,64.3,49.1,29.98,West,270,0.7,6.0,58,0.00,,,0.00,WUHU216HW,2013-10-10 23:11:00,
2013-10-10 16:16:00,64.1,49.0,29.98,SSW,203,1.6,3.4,58,0.00,,,0.00,WUHU216HW,2013-10-10 23:16:00,
2013-10-10 16:21:00,63.7,49.1,29.98,NW,315,1.8,3.4,59,0.00,,,0.00,WUHU216HW,2013-10-10 23:21:00,
2013-10-10 16:26:00,63.7,49.6,29.98,NW,315,0.4,2.9,60,0.00,,,0.00,WUHU216HW,2013-10-10 23:26:00,
2013-10-10 16:31:00,63.4,49.2,29.98,WNW,293,0.4,3.1,60,0.00,,,0.00,WUHU216HW,2013-10-10 23:31:00,
2013-10-10 16:36:00,63.2,49.1,29.98,West,270,0.4,3.1,60,0.00,,,0.00,WUHU216HW,2013-10-10 23:36:00,
2013-10-10 16:41:00,62.6,48.6,29.99,SSW,203,1.1,5.4,60,0.00,,,0.00,WUHU216HW,2013-10-10 23:41:00,
2013-10-10 16:46:00,62.5,48.9,29.99,WSW,248,0.7,5.4,61,0.00,,,0.00,WUHU216HW,2013-10-10 23:46:00,
2013-10-10 16:51:00,62.3,49.2,29.99,West,270,0.4,4.7,62,0.00,,,0.00,WUHU216HW,2013-10-10 23:51:00,
2013-10-10 16:56:00,62.3,50.0,29.99,NNW,338,3.6,6.7,64,0.00,,,0.00,WUHU216HW,2013-10-10 23:56:00,
2013-10-10 17:01:00,62.3,50.8,29.99,NW,315,2.7,6.7,66,0.00,,,0.00,WUHU216HW,2013-10-11 00:01:00,
2013-10-10 17:06:00,61.9,50.9,29.99,NW,315,5.6,6.7,67,0.00,,,0.00,WUHU216HW,2013-10-11 00:06:00,
2013-10-10 17:11:00,61.6,51.4,29.99,NW,315,5.8,7.6,69,0.00,,,0.00,WUHU216HW,2013-10-11 00:11:00,
2013-10-10 17:16:00,61.2,51.0,29.99,NNW,338,2.7,7.6,69,0.00,,,0.00,WUHU216HW,2013-10-11 00:16:00,
2013-10-10 17:21:00,60.8,51.1,29.99,WNW,293,2.2,8.7,70,0.00,,,0.00,WUHU216HW,2013-10-11 00:21:00,
2013-10-10 17:26:00,60.5,50.8,29.99,NW,315,5.6,8.7,70,0.00,,,0.00,WUHU216HW,2013-10-11 00:26:00,
2013-10-10 17:31:00,60.3,51.7,29.99,WNW,293,4.5,7.6,73,0.00,,,0.00,WUHU216HW,2013-10-11 00:31:00,
2013-10-10 17:36:00,60.1,51.8,29.99,WNW,293,4.3,7.6,74,0.00,,,0.00,WUHU216HW,2013-10-11 00:36:00,
2013-10-10 17:41:00,59.8,51.1,29.99,SW,225,3.4,11.4,73,0.00,,,0.00,WUHU216HW,2013-10-11 00:41:00,
2013-10-10 17:46:00,59.6,50.9,29.99,West,270,2.5,11.4,73,0.00,,,0.00,WUHU216HW,2013-10-11 00:46:00,
2013-10-10 17:51:00,59.4,50.8,29.99,WNW,293,5.4,8.1,73,0.00,,,0.00,WUHU216HW,2013-10-11 00:51:00,
2013-10-10 17:56:00,59.4,50.8,29.99,WNW,293,4.0,7.6,73,0.00,,,0.00,WUHU216HW,2013-10-11 00:56:00,
2013-10-10 18:01:00,59.4,50.8,30.00,WNW,293,3.4,8.5,73,0.00,,,0.00,WUHU216HW,2013-10-11 01:01:00,
2013-10-10 18:06:00,58.9,50.2,30.00,WNW,293,6.9,8.5,73,0.00,,,0.00,WUHU216HW,2013-10-11 01:06:00,
2013-10-10 18:11:00,58.7,50.0,30.00,NNW,338,7.6,8.7,73,0.00,,,0.00,WUHU216HW,2013-10-11 01:11:00,
2013-10-10 18:16:00,58.3,50.0,30.00,WNW,293,6.0,8.7,74,0.00,,,0.00,WUHU216HW,2013-10-11 01:16:00,
2013-10-10 18:21:00,58.0,50.0,30.00,NW,315,7.6,8.5,75,0.00,,,0.00,WUHU216HW,2013-10-11 01:21:00,
2013-10-10 18:26:00,58.0,49.7,30.00,WNW,293,6.0,9.8,74,0.00,,,0.00,WUHU216HW,2013-10-11 01:26:00,
2013-10-10 18:31:00,57.6,49.3,30.00,NW,315,4.5,9.8,74,0.00,,,0.00,WUHU216HW,2013-10-11 01:31:00,
2013-10-10 18:36:00,57.2,49.0,30.01,NW,315,6.3,6.9,74,0.00,,,0.00,WUHU216HW,2013-10-11 01:36:00,
2013-10-10 18:41:00,57.1,49.1,30.00,WNW,293,3.4,6.3,75,0.00,,,0.00,WUHU216HW,2013-10-11 01:41:00,
2013-10-10 18:46:00,56.9,49.3,30.01,NNW,338,6.9,11.4,76,0.00,,,0.00,WUHU216HW,2013-10-11 01:46:00,
2013-10-10 18:51:00,56.5,49.0,30.01,NW,315,3.4,11.4,76,0.00,,,0.00,WUHU216HW,2013-10-11 01:51:00,
2013-10-10 18:56:00,56.5,49.3,30.01,WNW,293,4.3,7.6,77,0.00,,,0.00,WUHU216HW,2013-10-11 01:56:00,
2013-10-10 19:01:00,56.3,48.8,30.01,NW,315,4.5,5.8,76,0.00,,,0.00,WUHU216HW,2013-10-11 02:01:00,
2013-10-10 19:06:00,56.2,48.6,30.01,NW,315,4.5,6.7,76,0.00,,,0.00,WUHU216HW,2013-10-11 02:06:00,
2013-10-10 19:11:00,56.0,48.8,30.01,WNW,293,1.3,6.9,77,0.00,,,0.00,WUHU216HW,2013-10-11 02:11:00,
2013-10-10 19:16:00,55.8,48.6,30.01,WNW,293,4.0,6.9,77,0.00,,,0.00,WUHU216HW,2013-10-11 02:16:00,
2013-10-10 19:21:00,55.8,48.3,30.01,WNW,293,2.7,6.9,76,0.00,,,0.00,WUHU216HW,2013-10-11 02:21:00,
2013-10-10 19:26:00,55.6,48.5,30.01,WSW,248,2.2,6.9,77,0.00,,,0.00,WUHU216HW,2013-10-11 02:26:00,
2013-10-10 19:31:00,55.4,48.3,30.01,WNW,293,2.0,4.7,77,0.00,,,0.00,WUHU216HW,2013-10-11 02:31:00,
2013-10-10 19:36:00,55.4,48.3,30.01,WSW,248,1.6,5.4,77,0.00,,,0.00,WUHU216HW,2013-10-11 02:36:00,
2013-10-10 19:41:00,55.4,48.6,30.01,SSW,203,2.2,5.4,78,0.00,,,0.00,WUHU216HW,2013-10-11 02:41:00,
2013-10-10 19:46:00,55.3,48.5,30.01,West,270,1.1,3.4,78,0.00,,,0.00,WUHU216HW,2013-10-11 02:46:00,
2013-10-10 19:51:00,55.4,48.3,30.02,NW,315,3.4,4.7,77,0.00,,,0.00,WUHU216HW,2013-10-11 02:51:00,
2013-10-10 19:56:00,55.3,48.2,30.02,NW,315,6.3,8.3,77,0.00,,,0.00,WUHU216HW,2013-10-11 02:56:00,
2013-10-10 20:01:00,55.3,48.2,30.02,WNW,293,5.1,8.3,77,0.00,,,0.00,WUHU216HW,2013-10-11 03:01:00,
2013-10-10 20:06:00,55.3,48.2,30.02,NW,315,5.4,6.9,77,0.00,,,0.00,WUHU216HW,2013-10-11 03:06:00,
2013-10-10 20:11:00,55.3,48.5,30.02,WNW,293,4.5,6.9,78,0.00,,,0.00,WUHU216HW,2013-10-11 03:11:00,
2013-10-10 20:16:00,55.3,48.2,30.02,WNW,293,6.3,7.8,77,0.00,,,0.00,WUHU216HW,2013-10-11 03:16:00,
2013-10-10 20:21:00,55.1,48.3,30.02,WNW,293,1.8,7.8,78,0.00,,,0.00,WUHU216HW,2013-10-11 03:21:00,
2013-10-10 20:26:00,55.1,48.0,30.02,NNW,338,2.0,7.6,77,0.00,,,0.00,WUHU216HW,2013-10-11 03:26:00,
2013-10-10 20:31:00,55.1,48.3,30.02,WNW,293,3.8,7.6,78,0.00,,,0.00,WUHU216HW,2013-10-11 03:31:00,
2013-10-10 20:36:00,54.9,48.5,30.02,NW,315,3.6,5.8,79,0.00,,,0.00,WUHU216HW,2013-10-11 03:36:00,
2013-10-10 20:41:00,54.7,48.0,30.02,WNW,293,4.0,6.3,78,0.00,,,0.00,WUHU216HW,2013-10-11 03:41:00,
2013-10-10 20:46:00,54.7,48.3,30.02,NW,315,3.8,7.2,79,0.00,,,0.00,WUHU216HW,2013-10-11 03:46:00,
2013-10-10 20:51:00,54.7,48.3,30.02,NW,315,4.9,6.9,79,0.00,,,0.00,WUHU216HW,2013-10-11 03:51:00,
2013-10-10 20:56:00,54.5,47.8,30.02,NW,315,5.8,6.9,78,0.00,,,0.00,WUHU216HW,2013-10-11 03:56:00,
2013-10-10 21:01:00,54.5,48.2,30.02,WNW,293,0.9,6.9,79,0.00,,,0.00,WUHU216HW,2013-10-11 04:01:00,
2013-10-10 21:02:00,54.5,48.2,30.02,WNW,293,1.6,6.9,79,0.00,,,0.00,WUHU216HW,2013-10-11 04:02:00,
2013-10-10 21:07:00,54.4,47.6,30.02,NW,315,4.5,5.8,78,0.00,,,0.00,WUHU216HW,2013-10-11 04:07:00,
2013-10-10 21:12:00,54.0,47.4,30.02,NW,315,3.1,5.8,78,0.00,,,0.00,WUHU216HW,2013-10-11 04:12:00,
2013-10-10 21:17:00,53.8,47.2,30.02,NNW,338,1.6,6.0,78,0.00,,,0.00,WUHU216HW,2013-10-11 04:17:00,
2013-10-10 21:22:00,53.6,47.0,30.03,WNW,293,3.1,6.0,78,0.00,,,0.00,WUHU216HW,2013-10-11 04:22:00,
2013-10-10 21:27:00,53.5,47.2,30.03,WNW,293,2.5,4.7,79,0.00,,,0.00,WUHU216HW,2013-10-11 04:27:00,
2013-10-10 21:32:00,53.5,47.2,30.03,WNW,293,2.9,5.1,79,0.00,,,0.00,WUHU216HW,2013-10-11 04:32:00,
2013-10-10 21:37:00,53.5,47.2,30.03,WNW,293,1.8,5.1,79,0.00,,,0.00,WUHU216HW,2013-10-11 04:37:00,
2013-10-10 21:42:00,53.5,47.2,30.03,NW,315,2.5,4.7,79,0.00,,,0.00,WUHU216HW,2013-10-11 04:42:00,
2013-10-10 21:47:00,53.5,47.5,30.04,WNW,293,3.4,4.7,80,0.00,,,0.00,WUHU216HW,2013-10-11 04:47:00,
2013-10-10 21:52:00,53.5,47.2,30.04,WNW,293,4.0,4.3,79,0.00,,,0.00,WUHU216HW,2013-10-11 04:52:00,
2013-10-10 21:57:00,53.6,47.7,30.04,WNW,293,2.7,4.0,80,0.00,,,0.00,WUHU216HW,2013-10-11 04:57:00,
2013-10-10 22:02:00,53.6,47.7,30.04,West,270,3.6,4.3,80,0.00,,,0.00,WUHU216HW,2013-10-11 05:02:00,
2013-10-10 22:07:00,53.6,47.7,30.05,WSW,248,2.2,4.3,80,0.00,,,0.00,WUHU216HW,2013-10-11 05:07:00,
2013-10-10 22:12:00,53.6,47.3,30.05,NW,315,4.0,4.0,79,0.00,,,0.00,WUHU216HW,2013-10-11 05:12:00,
2013-10-10 22:17:00,53.6,47.7,30.05,NW,315,4.7,4.7,80,0.00,,,0.00,WUHU216HW,2013-10-11 05:17:00,
2013-10-10 22:22:00,53.6,47.3,30.05,NW,315,1.8,5.4,79,0.00,,,0.00,WUHU216HW,2013-10-11 05:22:00,
2013-10-10 22:27:00,53.6,47.7,30.05,NW,315,1.8,5.4,80,0.00,,,0.00,WUHU216HW,2013-10-11 05:27:00,
2013-10-10 22:32:00,53.5,47.5,30.05,NW,315,3.4,4.3,80,0.00,,,0.00,WUHU216HW,2013-10-11 05:32:00,
2013-10-10 22:37:00,53.5,47.5,30.05,NW,315,1.3,5.6,80,0.00,,,0.00,WUHU216HW,2013-10-11 05:37:00,
2013-10-10 22:42:00,53.3,47.3,30.06,WNW,293,2.5,5.6,80,0.00,,,0.00,WUHU216HW,2013-10-11 05:42:00,
2013-10-10 22:47:00,53.3,47.3,30.06,NNW,338,1.8,5.4,80,0.00,,,0.00,WUHU216HW,2013-10-11 05:47:00,
2013-10-10 22:52:00,53.3,47.3,30.06,WNW,293,4.0,5.4,80,0.00,,,0.00,WUHU216HW,2013-10-11 05:52:00,
2013-10-10 22:57:00,53.3,47.3,30.06,WNW,293,2.0,4.9,80,0.00,,,0.00,WUHU216HW,2013-10-11 05:57:00,
2013-10-10 23:02:00,53.1,47.4,30.06,West,270,3.4,5.1,81,0.00,,,0.00,WUHU216HW,2013-10-11 06:02:00,
2013-10-10 23:07:00,53.1,47.2,30.07,West,270,2.0,5.4,80,0.00,,,0.00,WUHU216HW,2013-10-11 06:07:00,
2013-10-10 23:12:00,52.9,47.0,30.07,WNW,293,3.6,5.8,80,0.00,,,0.00,WUHU216HW,2013-10-11 06:12:00,
2013-10-10 23:17:00,52.9,47.0,30.07,WNW,293,2.9,5.8,80,0.00,,,0.00,WUHU216HW,2013-10-11 06:17:00,
2013-10-10 23:21:00,52.9,47.0,30.07,WNW,293,4.3,6.9,80,0.00,,,0.00,WUHU216HW,2013-10-11 06:21:00,
2013-10-10 23:26:00,52.9,47.0,30.07,WNW,293,1.6,6.9,80,0.00,,,0.00,WUHU216HW,2013-10-11 06:26:00,
2013-10-10 23:31:00,52.9,47.3,30.07,WNW,293,3.1,5.4,81,0.00,,,0.00,WUHU216HW,2013-10-11 06:31:00,
2013-10-10 23:36:00,52.7,46.8,30.07,West,270,0.7,5.4,80,0.00,,,0.00,WUHU216HW,2013-10-11 06:36:00,
2013-10-10 23:41:00,52.7,46.8,30.07,West,270,0.7,4.7,80,0.00,,,0.00,WUHU216HW,2013-10-11 06:41:00,
2013-10-10 23:46:00,52.7,46.8,30.07,NW,315,0.4,2.5,80,0.00,,,0.00,WUHU216HW,2013-10-11 06:46:00,
2013-10-10 23:51:00,52.7,47.1,30.07,NNW,338,2.0,2.2,81,0.00,,,0.00,WUHU216HW,2013-10-11 06:51:00,
2013-10-10 23:56:00,52.6,46.9,30.07,NW,315,1.1,2.7,81,0.00,,,0.00,WUHU216HW,2013-10-11 06:56:00,